TimeEDT,TemperatureF,Dew PointF,Humidity,Sea Level PressureIn,VisibilityMPH,Wind Direction,Wind SpeedMPH,Gust SpeedMPH,PrecipitationIn,Events,Conditions,WindDirDegrees,DateUTC
12:51 AM,54.0,41.0,62,30.01,10.0,Calm,Calm,-,N/A,,Clear,0,2012-10-07 04:51:00
1:51 AM,53.1,39.0,59,30.02,10.0,Calm,Calm,-,N/A,,Clear,0,2012-10-07 05:51:00
2:51 AM,53.1,37.0,55,30.03,10.0,Calm,Calm,-,N/A,,Clear,0,2012-10-07 06:51:00
3:51 AM,52.0,37.9,59,30.02,10.0,North,-9999.0,-,N/A,,Clear,0,2012-10-07 07:51:00
4:51 AM,51.1,37.0,59,30.04,10.0,Variable,4.6,-,N/A,,Clear,0,2012-10-07 08:51:00
5:51 AM,51.1,36.0,56,30.06,10.0,WNW,5.8,-,N/A,,Clear,300,2012-10-07 09:51:00
6:51 AM,51.1,36.0,56,30.07,10.0,Calm,Calm,-,N/A,,Clear,0,2012-10-07 10:51:00
7:51 AM,50.0,37.0,61,30.08,10.0,Calm,Calm,-,N/A,,Partly Cloudy,0,2012-10-07 11:51:00
8:51 AM,52.0,36.0,54,30.09,10.0,Calm,Calm,-,N/A,,Mostly Cloudy,0,2012-10-07 12:51:00
9:51 AM,53.1,39.9,61,30.09,10.0,Calm,Calm,-,N/A,,Overcast,0,2012-10-07 13:51:00
10:51 AM,53.1,39.0,59,30.11,10.0,Variable,3.5,-,N/A,,Overcast,0,2012-10-07 14:51:00
11:51 AM,50.0,45.0,83,30.11,4.0,Calm,Calm,-,0.02,Rain,Light Rain,0,2012-10-07 15:51:00
12:51 PM,50.0,46.0,86,30.09,6.0,Calm,Calm,-,0.04,Rain,Light Rain,0,2012-10-07 16:51:00
1:51 PM,50.0,48.0,93,30.07,10.0,Calm,Calm,-,0.02,,Overcast,0,2012-10-07 17:51:00
2:51 PM,51.1,48.0,89,30.06,10.0,Calm,Calm,-,N/A,,Overcast,0,2012-10-07 18:51:00
3:26 PM,52.0,48.0,86,30.07,10.0,Calm,Calm,-,N/A,,Overcast,0,2012-10-07 19:26:00
3:51 PM,53.1,45.0,74,30.04,10.0,Calm,Calm,-,N/A,,Overcast,0,2012-10-07 19:51:00
4:51 PM,52.0,46.0,80,30.03,10.0,West,4.6,-,0.00,,Overcast,280,2012-10-07 20:51:00
5:51 PM,51.1,46.9,86,30.02,9.0,Calm,Calm,-,0.00,,Overcast,0,2012-10-07 21:51:00
6:51 PM,51.1,45.0,80,30.03,10.0,Variable,3.5,-,N/A,,Overcast,0,2012-10-07 22:51:00
7:51 PM,48.0,43.0,83,30.08,4.0,WNW,8.1,-,0.03,Rain,Light Rain,290,2012-10-07 23:51:00
8:07 PM,48.9,45.0,86,30.10,6.0,West,4.6,-,0.01,Rain,Light Rain,280,2012-10-08 00:07:00
8:51 PM,48.9,46.9,93,30.09,7.0,West,4.6,-,0.02,Rain,Light Rain,280,2012-10-08 00:51:00
9:51 PM,48.9,46.9,93,30.09,5.0,Variable,3.5,-,0.05,Rain,Light Rain,0,2012-10-08 01:51:00
10:51 PM,48.0,45.0,89,30.12,10.0,Variable,5.8,-,0.01,,Overcast,0,2012-10-08 02:51:00
11:51 PM,46.9,45.0,93,30.12,10.0,North,-9999.0,-,N/A,,Overcast,0,2012-10-08 03:51:00